Regional Weather Roundup
Issued by NWS Cleveland, OH

Home | Current Version | Previous Version | Graphics & Text | Print | Product List | Glossary On
Versions: 1 2 3 4 5 6 7 8 9 10 11 12 13 14 15 16 17 18 19 20 21 22 23 24 25 26 27 28 29 30 31 32 33 34 35 36 37 38 39 40 41 42 43 44 45 46 47 48 49 50
000
ASUS41 KCLE 201002
RWRCLE
OHIO REGIONAL WEATHER ROUNDUP
NATIONAL WEATHER SERVICE CLEVELAND, OH
600 AM EDT MON OCT 20 2014

NOTE: "FAIR" INDICATES FEW OR NO CLOUDS BELOW 12,000 FEET WITH NO
SIGNIFICANT WEATHER AND/OR OBSTRUCTIONS TO VISIBILITY.

OHZ001>008-015>018-024>027-034-035-043-044-201100-
   NORTHWEST OHIO

CITY           SKY/WX    TMP DP  RH WIND       PRES   REMARKS
DEFIANCE       CLOUDY    48  42  80 S9        29.92F
FINDLAY        MOCLDY    48  42  80 SW8       29.93F
TOLEDO EXPRESS LGT RAIN  47  41  80 SW7       29.91F
TOLEDO EXEC    PTCLDY    47  40  76 S8        29.93F
LIMA           LGT RAIN  48  42  80 S9        29.95F
$$

OHZ009>014-019>023-028>033-038-089-201100-
   NORTHEAST OHIO

CITY           SKY/WX    TMP DP  RH WIND       PRES   REMARKS
CLE-HOPKINS    CLOUDY    48  37  65 S10       29.98F
CLE-LAKEFRONT  CLOUDY    49  38  65 S9        29.95F
CUY CO. ARPT   NOT AVBL
LORAIN-ELYRIA  CLOUDY    47  39  74 SW9       29.96F
ASHTABULA      CLOUDY    45  36  70 S9        29.97F
AKRON-CANTON   CLOUDY    46  37  71 S8        29.98F
WOOSTER        CLOUDY    46  38  73 S6        29.98F
MANSFIELD      CLOUDY    47  40  76 SW8       29.97F
YOUNGSTOWN     CLOUDY    45  37  73 S7        29.98F
$$

OHZ042-051>053-060>062-070>072-077>081-201100-
  SOUTHWEST OHIO

CITY           SKY/WX    TMP DP  RH WIND       PRES   REMARKS
CINC-COVINGTON CLOUDY    46  42  86 S6        30.01F
CINC-LUNKEN    CLOUDY    44  43  96 CALM      30.03F
HAMILTON       CLOUDY    45  44  97 SE3       30.01F
DAYTON         CLOUDY    48  41  76 S9        29.99F
WRIGHT-PAT AFB CLOUDY    46  42  84 S6        29.99F
DAYTON GENERAL CLOUDY    46  42  86 S5        29.99F
WILMINGTON     CLOUDY    45  40  82 S8        30.01S
$$

OHZ036-037-039>041-045>050-054>059-063>069-073>076-082>088-201100-
  CENTRAL AND SOUTHEAST OHIO

CITY           SKY/WX    TMP DP  RH WIND       PRES   REMARKS
COLUMBUS       CLOUDY    45  39  79 S6        30.00F
OSU AIRPORT    CLOUDY    46  40  79 S6        29.99F
BOLTON FIELD   CLOUDY    44  41  89 S3        30.00F
RICKENBACK AFB NOT AVBL
NEWARK         CLOUDY    41  38  89 CALM      30.01F
MARION         CLOUDY    47  39  74 SW7       29.97F
LANCASTER      CLOUDY    44  40  85 S6        30.02F
ZANESVILLE     CLOUDY    43  37  79 S5        30.02F
NEW PHILLY     CLOUDY    44  39  82 SE6       30.01F
$$



USA.gov is the U.S. government's official web portal to all federal, state and local government web resources and services.